K7LHC Weather Reports


Display with metric or nautical units.
time (UTC)temp
F
wind
direction
speed
MPH
gust
MPH
rain 1hr
in
rain 24hr
in
rain mn
in
humidity
%
barometer
mb
20260506221004 83 172 7.0 18.0 0.00 0.00 0.00 13
20260506220005 82 150 11.0 17.0 0.00 0.00 0.00 14
20260506215004 83 170 5.0 15.0 0.00 0.00 0.00 13
20260506214004 83 129 6.0 16.0 0.00 0.00 0.00 14
20260506213005 82 212 5.0 13.0 0.00 0.00 0.00 13
20260506212005 82 172 7.0 13.0 0.00 0.00 0.00 13
20260506211004 82 143 7.0 12.0 0.00 0.00 0.00 12
20260506210006 81 239 2.0 10.0 0.00 0.00 0.00 13
20260506205005 82 94 8.0 13.0 0.00 0.00 0.00 13
20260506204004 81 87 6.0 15.0 0.00 0.00 0.00 14
20260506203005 80 49 6.0 10.0 0.00 0.00 0.00 14
20260506202005 80 16 7.0 12.0 0.00 0.00 0.00 14
20260506201008 80 64 7.0 13.0 0.00 0.00 0.00 15
20260506200004 79 72 6.0 9.0 0.00 0.00 0.00 16
20260506195006 79 35 3.0 13.0 0.00 0.00 0.00 16
20260506192005 79 32 3.0 8.0 0.00 0.00 0.00 17
20260506191005 79 1 6.0 13.0 0.00 0.00 0.00 17
20260506185005 78 91 5.0 10.0 0.00 0.00 0.00 18
20260506184004 77 9 6.0 9.0 0.00 0.00 0.00 20
20260506183006 76 78 5.0 10.0 0.00 0.00 0.00 19
20260506180005 76 10 3.0 8.0 0.00 0.00 0.00 23
20260506175005 75 55 5.0 9.0 0.00 0.00 0.00 24
20260506173005 74 5 3.0 8.0 0.00 0.00 0.00 26
20260506172004 72 12 7.0 12.0 0.00 0.00 0.00 27
20260506171004 72 355 7.0 9.0 0.00 0.00 0.00 28
20260506170005 73 14 3.0 7.0 0.00 0.00 0.00 28
20260506164005 71 354 4.0 8.0 0.00 0.00 0.00 29
20260506163004 71 346 5.0 10.0 0.00 0.00 0.00 29
20260506154005 68 324 7.0 12.0 0.00 0.00 0.00 32
20260506152004 67 324 6.0 10.0 0.00 0.00 0.00 33
20260506151004 67 337 5.0 9.0 0.00 0.00 0.00 32
20260506150005 67 325 7.0 9.0 0.00 0.00 0.00 33
20260506145004 66 323 7.0 9.0 0.00 0.00 0.00 33
20260506144005 67 340 6.0 8.0 0.00 0.00 0.00 33
20260506142004 66 335 6.0 9.0 0.00 0.00 0.00 34
20260506141005 66 314 6.0 10.0 0.00 0.00 0.00 34
20260506140005 66 344 3.0 7.0 0.00 0.00 0.00 34
20260506135004 66 353 2.0 5.0 0.00 0.00 0.00 34
20260506134004 65 316 3.0 9.0 0.00 0.00 0.00 34
20260506133005 65 309 7.0 10.0 0.00 0.00 0.00 35
20260506132005 64 306 6.0 9.0 0.00 0.00 0.00 35
20260506131004 64 305 5.0 9.0 0.00 0.00 0.00 36
20260506130005 64 300 6.0 10.0 0.00 0.00 0.00 36
20260506125005 64 308 5.0 9.0 0.00 0.00 0.00 36
20260506124005 64 302 7.0 10.0 0.00 0.00 0.00 36
20260506123005 64 305 7.0 10.0 0.00 0.00 0.00 36
20260506122006 64 309 6.0 10.0 0.00 0.00 0.00 36
20260506121005 64 312 7.0 12.0 0.00 0.00 0.00 36
20260506115006 64 314 6.0 9.0 0.00 0.00 0.00 36
20260506113005 63 316 6.0 9.0 0.00 0.00 0.00 36
20260506112005 64 307 7.0 12.0 0.00 0.00 0.00 36
20260506111005 64 305 8.0 10.0 0.00 0.00 0.00 36
20260506105006 64 303 7.0 12.0 0.00 0.00 0.00 36
20260506104005 64 301 7.0 12.0 0.00 0.00 0.00 36
20260506103005 64 307 6.0 10.0 0.00 0.00 0.00 36
20260506102006 65 303 7.0 12.0 0.00 0.00 0.00 35
20260506095006 65 296 7.0 12.0 0.00 0.00 0.00 34
20260506094005 65 296 6.0 10.0 0.00 0.00 0.00 34
20260506093005 66 297 5.0 9.0 0.00 0.00 0.00 34
20260506091005 65 302 6.0 10.0 0.00 0.00 0.00 34
20260506090004 66 301 6.0 10.0 0.00 0.00 0.00 33
20260506082007 67 296 7.0 12.0 0.00 0.00 0.00 32
20260506081007 67 296 5.0 10.0 0.00 0.00 0.00 32
20260506073006 67 304 6.0 12.0 0.00 0.00 0.00 32
20260506072005 68 301 6.0 12.0 0.00 0.00 0.00 32
20260506071005 67 295 6.0 10.0 0.00 0.00 0.00 32
20260506062005 68 291 7.0 10.0 0.00 0.00 0.00 31
20260506061006 69 295 7.0 12.0 0.00 0.00 0.00 31
20260506051006 70 304 4.0 9.0 0.00 0.00 0.00 30
20260506045005 71 296 3.0 8.0 0.00 0.00 0.00 29
20260506044005 71 328 2.0 5.0 0.00 0.00 0.00 29
20260506043005 72 335 5.0 10.0 0.00 0.00 0.00 28
20260506042007 71 341 5.0 10.0 0.00 0.00 0.00 28
20260506041006 72 334 5.0 10.0 0.00 0.00 0.00 28
20260506040004 72 342 5.0 10.0 0.00 0.00 0.00 28
20260506035006 72 355 5.0 13.0 0.00 0.00 0.00 28
20260506034005 72 356 7.0 13.0 0.00 0.00 0.00 28
20260506033006 72 6 7.0 12.0 0.00 0.00 0.00 27
20260506032006 72 11 10.0 16.0 0.00 0.00 0.00 27
20260506031006 73 7 9.0 16.0 0.00 0.00 0.00 26
20260506030005 73 8 11.0 15.0 0.00 0.00 0.00 26
20260506025006 74 11 8.0 14.0 0.00 0.00 0.00 25
20260506024005 74 16 5.0 12.0 0.00 0.00 0.00 25
20260506023006 74 0 10.0 15.0 0.00 0.00 0.00 24
20260506022005 74 1 9.0 15.0 0.00 0.00 0.00 23
20260506021005 75 14 10.0 14.0 0.00 0.00 0.00 22
20260506020004 75 3 9.0 13.0 0.00 0.00 0.00 20
20260506015004 76 52 7.0 14.0 0.00 0.00 0.00 20
20260506014013 76 21 9.0 14.0 0.00 0.00 0.00 19
20260506013007 76 112 6.0 12.0 0.00 0.00 0.00 16
20260506012006 76 84 8.0 13.0 0.00 0.00 0.00 16
20260506011007 76 44 3.0 14.0 0.00 0.00 0.00 16
20260506010008 77 70 5.0 13.0 0.00 0.00 0.00 16
20260506004008 77 79 6.0 12.0 0.00 0.00 0.00 15
20260506003006 77 43 9.0 14.0 0.00 0.00 0.00 16
20260506002007 77 70 10.0 16.0 0.00 0.00 0.00 16
20260506001005 77 111 10.0 18.0 0.00 0.00 0.00 16
20260506000004 77 61 7.0 9.0 0.00 0.00 0.00 16
20260505234004 76 100 2.0 10.0 0.00 0.00 0.00 16
20260505233004 76 82 5.0 13.0 0.00 0.00 0.00 17
20260505232004 77 30 7.0 15.0 0.00 0.00 0.00 17
20260505231004 76 19 7.0 14.0 0.00 0.00 0.00 17
20260505225006 76 103 6.0 10.0 0.00 0.00 0.00 18
20260505224004 75 30 6.0 12.0 0.00 0.00 0.00 19
20260505223005 77 92 5.0 12.0 0.00 0.00 0.00 18
20260505222004 76 95 3.0 12.0 0.00 0.00 0.00 19